This demonstration page uses our WeatherBlox Daily Observations layout. Learn more.

Left ArrowRight Arrow

34.74481, -87.66753

Hourly Observations for April 20, 2021

Temp ( °F °C ) Dew Point ( °F °C ) Humidity (%) Winds ( mph kmh ) Pressure ( in mb ) Visibility ( mi km ) Precip ( " mm )
12:53 am 00:53 Clear 51 10.6 44 6.7 77 77 Calm 29.99 1016 10 16 0.00 0.00
1:53 am 01:53 Clear 50 10 44 6.7 80 80 Calm 29.99 1016 10 16 0.00 0.00
2:53 am 02:53 Clear 49 9.4 43 6.1 80 80 Calm 29.99 1016 10 16 0.00 0.00
3:53 am 03:53 Clear 49 9.4 43 6.1 80 80 Calm 30.00 1016 9 14 0.00 0.00
4:53 am 04:53 Clear 47 8.3 42 5.6 83 83 Calm 29.98 1015 7 11 0.00 0.00
5:53 am 05:53 Clear with Mist and Fog 44 6.7 40 4.4 85 85 Calm 29.98 1015 6 10 0.00 0.00
5:59 am 05:59 Hazy 46 7.8 41 5 83 83 Calm 30.00 1016 2 3 0.00 0.00
6:17 am 06:17 Sunny with Fog 45 7.2 41 5 86 86 Calm 30.01 1016 1 1 0.00 0.00
6:24 am 06:24 Hazy 46 7.8 41 5 83 83 Calm 30.01 1016 3 4 0.00 0.00
6:31 am 06:31 Hazy 47 8.3 42 5.6 83 83 Calm 30.01 1016 6 10 0.00 0.00
6:53 am 06:53 Sunny 47 8.3 43 6.1 86 86 Calm 30.00 1016 7 11 0.00 0.00
7:53 am 07:53 Sunny 53 11.7 47 8.3 80 80 Calm 30.00 1016 10 16 0.00 0.00
8:53 am 08:53 Sunny 60 15.6 47 8.3 62 62 Calm 29.99 1016 10 16 0.00 0.00
9:53 am 09:53 Sunny 66 18.9 44 6.7 45 45 SSW 3 6 30.00 1016 10 16 0.00 0.00
10:53 am 10:53 Mostly Sunny 71 21.7 42 5.6 35 35 WSW 12 19 29.99 1016 10 16 0.00 0.00
11:53 am 11:53 Sunny 72 22.2 41 5 33 33 W 14 22 29.98 1015 10 16 0.00 0.00
12:53 pm 12:53 Sunny 73 22.8 41 5 32 32 WSW 9 15 29.95 1014 10 16 0.00 0.00
1:53 pm 13:53 Mostly Sunny 73 22.8 40 4.4 30 30 W 6 9 29.94 1014 10 16 0.00 0.00
2:53 pm 14:53 Sunny 74 23.3 40 4.4 29 29 W 12 19 29.92 1013 10 16 0.00 0.00
3:53 pm 15:53 Sunny 75 23.9 39 3.9 27 27 SW 10 17 29.89 1012 10 16 0.00 0.00
4:53 pm 16:53 Sunny 74 23.3 39 3.9 28 28 WSW 14 22 29.89 1012 10 16 0.00 0.00
5:53 pm 17:53 Mostly Sunny 73 22.8 39 3.9 29 29 W 12 19 29.88 1012 10 16 0.00 0.00
6:53 pm 18:53 Sunny 69 20.6 40 4.4 35 35 WSW 10 17 29.88 1012 10 16 0.00 0.00
7:53 pm 19:53 Clear 67 19.4 41 5 39 39 SW 6 9 29.89 1012 10 16 0.00 0.00
8:53 pm 20:53 Clear 63 17.2 41 5 45 45 SSW 5 7 29.91 1013 10 16 0.00 0.00
9:53 pm 21:53 Clear 60 15.6 42 5.6 52 52 SSW 6 9 29.91 1013 10 16 0.00 0.00
10:53 pm 22:53 Clear 58 14.4 41 5 53 53 NW 14 22 29.98 1015 10 16 0.00 0.00
11:53 pm 23:53 Partly Cloudy 51 10.6 36 2.2 56 56 N 13 20 30.02 1017 10 16 0.00 0.00

Powered by AerisWeather